Hourly Weather Kyzylata

Today, 29 October, Thursday

Time Temperature Precipitation Wind Pressure Humidity
00:00 0°C° 0 mm 1 mps 685 mmHg 43%
01:00 0°C° 0 mm 1 mps 685 mmHg 43%
02:00 0°C° 0 mm 1 mps 686 mmHg 43%
03:00 0°C° 0 mm 1 mps 686 mmHg 44%
04:00 0°C° 0 mm 1 mps 686 mmHg 45%
05:00 0°C° 0 mm 1 mps 686 mmHg 46%
06:00 +1°C° 0 mm 1 mps 687 mmHg 44%
07:00 +1°C° 0 mm 1 mps 687 mmHg 43%
08:00 +2°C° 0 mm 1 mps 688 mmHg 41%
09:00 +5°C° 0 mm 1 mps 688 mmHg 36%
10:00 +7°C° 0 mm 1 mps 688 mmHg 31%
11:00 +9°C° 0 mm 1 mps 689 mmHg 26%
12:00 +9°C° 0 mm 2 mps 688 mmHg 24%
13:00 +9°C° 0 mm 2 mps 688 mmHg 23%
14:00 +10°C° 0 mm 3 mps 688 mmHg 22%
15:00 +9°C° 0 mm 2 mps 687 mmHg 25%
16:00 +8°C° 0 mm 2 mps 687 mmHg 27%
17:00 +6°C° 0 mm 2 mps 687 mmHg 30%
18:00 +6°C° 0 mm 2 mps 687 mmHg 32%
19:00 +5°C° 0 mm 2 mps 686 mmHg 34%
20:00 +5°C° 0 mm 1 mps 686 mmHg 36%
21:00 +5°C° 0 mm 1 mps 686 mmHg 35%
22:00 +5°C° 0 mm 1 mps 686 mmHg 34%
23:00 +5°C° 0 mm 1 mps 686 mmHg 33%

Tomorrow, 30 October, Friday

Time Temperature Precipitation Wind Pressure Humidity
00:00 +5°C° 0 mm 1 mps 685 mmHg 32%
01:00 +4°C° 0 mm 2 mps 685 mmHg 31%
02:00 +4°C° 0 mm 2 mps 684 mmHg 31%
03:00 +4°C° 0 mm 2 mps 684 mmHg 30%
04:00 +4°C° 0 mm 2 mps 684 mmHg 30%
05:00 +4°C° 0 mm 2 mps 684 mmHg 29%
06:00 +5°C° 0 mm 2 mps 684 mmHg 28%
07:00 +6°C° 0 mm 2 mps 684 mmHg 26%
08:00 +8°C° 0 mm 1 mps 684 mmHg 24%
09:00 +9°C° 0 mm 2 mps 685 mmHg 21%
10:00 +12°C° 0 mm 2 mps 685 mmHg 18%
11:00 +15°C° 0 mm 2 mps 685 mmHg 15%
12:00 +15°C° 0 mm 2 mps 685 mmHg 14%
13:00 +16°C° 0 mm 2 mps 684 mmHg 14%
14:00 +16°C° 0 mm 2 mps 684 mmHg 14%
15:00 +14°C° 0 mm 2 mps 683 mmHg 16%
16:00 +13°C° 0 mm 1 mps 683 mmHg 19%
17:00 +11°C° 0 mm 1 mps 682 mmHg 21%
18:00 +10°C° 0 mm 1 mps 682 mmHg 22%
19:00 +9°C° 0 mm 1 mps 682 mmHg 23%
20:00 +8°C° 0 mm 2 mps 682 mmHg 24%
21:00 +8°C° 0 mm 2 mps 682 mmHg 24%
22:00 +8°C° 0 mm 1 mps 681 mmHg 24%
23:00 +8°C° 0 mm 1 mps 681 mmHg 24%

Day after tomorrow, 31 October, Saturday

Time Temperature Precipitation Wind Pressure Humidity
00:00 +8°C° 0 mm 1 mps 681 mmHg 24%
01:00 +7°C° 0 mm 2 mps 681 mmHg 23%
02:00 +7°C° 0 mm 2 mps 680 mmHg 23%
03:00 +7°C° 0 mm 2 mps 680 mmHg 23%
04:00 +7°C° 0 mm 2 mps 680 mmHg 23%
05:00 +7°C° 0 mm 2 mps 680 mmHg 22%
06:00 +8°C° 0 mm 2 mps 681 mmHg 21%
07:00 +8°C° 0 mm 2 mps 681 mmHg 20%
08:00 +10°C° 0 mm 1 mps 681 mmHg 19%
09:00 +12°C° 0 mm 1 mps 682 mmHg 16%
10:00 +15°C° 0 mm 1 mps 682 mmHg 13%
11:00 +19°C° 0 mm 1 mps 683 mmHg 11%
12:00 +18°C° 0 mm 2 mps 683 mmHg 10%
13:00 +18°C° 0 mm 2 mps 682 mmHg 10%
14:00 +19°C° 0 mm 2 mps 682 mmHg 9%
15:00 +17°C° 0 mm 2 mps 682 mmHg 11%
16:00 +15°C° 0 mm 2 mps 681 mmHg 13%
17:00 +13°C° 0 mm 1 mps 681 mmHg 15%
18:00 +12°C° 0 mm 1 mps 681 mmHg 16%
19:00 +11°C° 0 mm 1 mps 681 mmHg 17%
20:00 +9°C° 0 mm 2 mps 681 mmHg 17%
21:00 +9°C° 0 mm 2 mps 680 mmHg 17%
22:00 +9°C° 0 mm 2 mps 680 mmHg 17%
23:00 +9°C° 0 mm 2 mps 680 mmHg 17%

1 November, Sunday

Time Temperature Precipitation Wind Pressure Humidity
00:00 +9°C° 0 mm 2 mps 680 mmHg 17%
01:00 +9°C° 0 mm 2 mps 680 mmHg 17%
02:00 +9°C° 0 mm 2 mps 680 mmHg 17%
03:00 +9°C° 0 mm 2 mps 680 mmHg 18%
04:00 +9°C° 0 mm 2 mps 680 mmHg 18%
05:00 +9°C° 0 mm 2 mps 680 mmHg 18%
06:00 +9°C° 0 mm 2 mps 680 mmHg 17%
07:00 +10°C° 0 mm 2 mps 680 mmHg 17%
08:00 +10°C° 0 mm 2 mps 681 mmHg 16%
09:00 +14°C° 0 mm 2 mps 681 mmHg 14%
10:00 +16°C° 0 mm 2 mps 682 mmHg 12%
11:00 +19°C° 0 mm 2 mps 682 mmHg 9%
12:00 +19°C° 0 mm 2 mps 682 mmHg 9%
13:00 +20°C° 0 mm 3 mps 682 mmHg 9%
14:00 +20°C° 0 mm 3 mps 682 mmHg 8%
15:00 +18°C° 0 mm 2 mps 681 mmHg 10%
16:00 +16°C° 0 mm 2 mps 680 mmHg 12%
17:00 +14°C° 0 mm 1 mps 680 mmHg 14%
18:00 +13°C° 0 mm 1 mps 680 mmHg 14%
19:00 +13°C° 0 mm 1 mps 680 mmHg 15%
20:00 +12°C° 0 mm 2 mps 680 mmHg 15%
21:00 +12°C° 0 mm 2 mps 679 mmHg 14%
22:00 +12°C° 0 mm 2 mps 679 mmHg 14%
23:00 +12°C° 0 mm 2 mps 679 mmHg 14%

2 November, Monday

Time Temperature Precipitation Wind Pressure Humidity
00:00 +10°C° 0 mm 2 mps 679 mmHg 14%
01:00 +10°C° 0 mm 2 mps 679 mmHg 14%
02:00 +10°C° 0 mm 2 mps 679 mmHg 14%
03:00 +9°C° 0 mm 2 mps 679 mmHg 14%
04:00 +9°C° 0 mm 2 mps 679 mmHg 14%
05:00 +9°C° 0 mm 2 mps 679 mmHg 15%
06:00 +9°C° 0 mm 2 mps 679 mmHg 14%
07:00 +10°C° 0 mm 2 mps 680 mmHg 14%
08:00 +10°C° 0 mm 2 mps 680 mmHg 13%
09:00 +14°C° 0 mm 2 mps 681 mmHg 11%
10:00 +16°C° 0 mm 2 mps 681 mmHg 10%
11:00 +19°C° 0 mm 2 mps 682 mmHg 8%
12:00 +19°C° 0 mm 2 mps 682 mmHg 8%
13:00 +19°C° 0 mm 3 mps 682 mmHg 8%
14:00 +20°C° 0 mm 3 mps 682 mmHg 8%
15:00 +17°C° 0 mm 3 mps 682 mmHg 10%
16:00 +15°C° 0 mm 2 mps 681 mmHg 13%
17:00 +13°C° 0 mm 1 mps 681 mmHg 15%
18:00 +12°C° 0 mm 1 mps 681 mmHg 16%
19:00 +12°C° 0 mm 1 mps 681 mmHg 16%
20:00 +11°C° 0 mm 1 mps 681 mmHg 17%
21:00 +11°C° 0 mm 1 mps 681 mmHg 17%
22:00 +10°C° 0 mm 1 mps 681 mmHg 17%
23:00 +10°C° 0 mm 1 mps 681 mmHg 17%

3 November, Tuesday

Time Temperature Precipitation Wind Pressure Humidity
00:00 +10°C° 0 mm 1 mps 681 mmHg 17%
01:00 +10°C° 0 mm 1 mps 681 mmHg 17%
02:00 +9°C° 0 mm 1 mps 681 mmHg 17%
03:00 +8°C° 0 mm 2 mps 681 mmHg 17%
04:00 +8°C° 0 mm 2 mps 681 mmHg 17%
05:00 +8°C° 0 mm 2 mps 681 mmHg 18%
06:00 +8°C° 0 mm 2 mps 681 mmHg 17%
07:00 +8°C° 0 mm 2 mps 682 mmHg 17%
08:00 +9°C° 0 mm 2 mps 682 mmHg 16%
09:00 +12°C° 0 mm 2 mps 682 mmHg 15%
10:00 +14°C° 0 mm 2 mps 683 mmHg 13%
11:00 +16°C° 0 mm 2 mps 683 mmHg 11%
12:00 +17°C° 0 mm 2 mps 683 mmHg 11%
13:00 +17°C° 0 mm 3 mps 683 mmHg 11%
14:00 +17°C° 0 mm 3 mps 683 mmHg 11%
15:00 +15°C° 0 mm 2 mps 682 mmHg 14%
16:00 +13°C° 0 mm 2 mps 682 mmHg 17%
17:00 +12°C° 0 mm 1 mps 681 mmHg 19%
18:00 +11°C° 0 mm 1 mps 681 mmHg 21%
19:00 +10°C° 0 mm 1 mps 681 mmHg 22%
20:00 +9°C° 0 mm 1 mps 681 mmHg 23%
21:00 +8°C° 0 mm 1 mps 681 mmHg 22%
22:00 +8°C° 0 mm 1 mps 681 mmHg 21%
23:00 +8°C° 0 mm 1 mps 680 mmHg 21%
Show more

We Need Your Consent

Meteoprog and our Service Providers may store and access personal data such as cookies, device identifiers or other similar technologies on your device and process such data to personalise content and ads, as well as provide social media features and to analyse the traffic.

  • Store and/or access information on your device

    Cookies, device identifiers or other information can be stored or accessed on your device for the purposes indicated above.

  • Personalised ads and content, ad and content measurement, audience insights, and products development

    Ads and content can be personalised based on a profile. More data can be added to better personalise ads and content. Ad and content performance can be measured. Insights about the audience who saw the ads and content can be derived. Such data can be used to develop or improve user’s experience, systems and software.

By clicking ‘I Agree’ you will allow the use of indicated cookies, device identifiers, web beacons or other similar technologies. Your settings can be changed in the browser on your device.

For certain purposes, legitimate interests may be relied on, rather than consent. You can read more about this in our Privacy and Cookie Policy.